This is the latest recevied weather packets stored in our database for station/object KQ4OSL. If no packets are shown the sender has not sent any weather packets the latest 10 day(s).
| Time | Temp. | Humidity | Pressure | Rain* | Wind** | Luminosity | Snow |
|---|---|---|---|---|---|---|---|
| 1788122570 | 30.56° C | 69% | 1021.7 hPa | 0 mm | - | 467 W/m² | - |
| 1788122266 | 31.11° C | 69% | 1021.6 hPa | 0 mm | - | 455 W/m² | - |
| 1788121962 | 31.11° C | 70% | 1021.7 hPa | 0 mm | - | 453 W/m² | - |
| 1788121661 | 31.11° C | 70% | 1021.6 hPa | 0 mm | - | 472 W/m² | - |
| 1788121357 | 30.56° C | 70% | 1021.7 hPa | 0 mm | - | 488 W/m² | - |
| 1788121056 | 30.56° C | 71% | 1021.7 hPa | 0 mm | - | 511 W/m² | - |
| 1788120751 | 30° C | 73% | 1021.6 hPa | 0 mm | - | 529 W/m² | - |
| 1788120447 | 30° C | 74% | 1021.7 hPa | 0 mm | - | 481 W/m² | - |
| 1788120146 | 30.56° C | 72% | 1021.9 hPa | 0 mm | - | 560 W/m² | - |
| 1788119841 | 30.56° C | 73% | 1021.7 hPa | 0 mm | - | 567 W/m² | - |
| 1788119540 | 30.56° C | 70% | 1022 hPa | 0 mm | - | 593 W/m² | - |
| 1788119238 | 31.11° C | 73% | 1022.1 hPa | 0 mm | - | 608 W/m² | - |
| 1788118934 | 31.11° C | 71% | 1022.1 hPa | 0 mm | - | 592 W/m² | - |
| 1788118628 | 30.56° C | 72% | 1022.2 hPa | 0 mm | - | 629 W/m² | - |
| 1788118323 | 31.11° C | 70% | 1022.2 hPa | 0 mm | - | 640 W/m² | - |
| 1788118018 | 30.56° C | 73% | 1022.2 hPa | 0 mm | - | 667 W/m² | - |
| 1788117713 | 30.56° C | 70% | 1022.2 hPa | 0 mm | - | 672 W/m² | - |
| 1788117409 | 30.56° C | 69% | 1022.1 hPa | 0 mm | - | 689 W/m² | - |
| 1788117103 | 30° C | 73% | 1022.4 hPa | 0 mm | - | 677 W/m² | - |
| 1788116799 | 30° C | 75% | 1022.3 hPa | 0 mm | - | 667 W/m² | - |
| 1788116494 | 30° C | 73% | 1022.3 hPa | 0 mm | - | 673 W/m² | - |
| 1788116192 | 30° C | 75% | 1022.5 hPa | 0 mm | - | 719 W/m² | - |
| 1788115888 | 30.56° C | 76% | 1022.5 hPa | 0 mm | - | 473 W/m² | - |
| 1788115587 | 30.56° C | 73% | 1022.6 hPa | 0 mm | - | 749 W/m² | - |
| 1788115282 | 30° C | 73% | 1023 hPa | 0 mm | - | 761 W/m² | - |
* Rain latest hour (hover to see other rain measurements)
** Current wind speed in m/s (hover to see current wind gust speed)